Weather reports worldwide

Advertisment
Bedford, United Kingdom (3560): temperature & dewpoint: 12.01.2020 12:00:00 - 18.01.2020 12:00:00 (GMT)Bedford, United Kingdom (3560): temperature -20cm & temperature -100cm: 12.01.2020 12:00:00 - 18.01.2020 12:00:00 (GMT)Bedford, United Kingdom (3560): wind speed & gusts: 12.01.2020 12:00:00 - 18.01.2020 12:00:00 (GMT)Bedford, United Kingdom (3560): wind direction: 12.01.2020 12:00:00 - 18.01.2020 12:00:00 (GMT)Bedford, United Kingdom (3560): reduced air pressure: 12.01.2020 12:00:00 - 18.01.2020 12:00:00 (GMT)Bedford, United Kingdom (3560): visibility: 12.01.2020 12:00:00 - 18.01.2020 12:00:00 (GMT)Bedford, United Kingdom (3560): precipitation: 12.01.2020 12:00:00 - 18.01.2020 12:00:00 (GMT)
Date & Time tt [°C] td [°C] tt -20cm [°C] tt -100cm [°C] ff [km/h] ff [kn] fx [km/h] fx [kn] dd ppp [hPa] vv [km] rr [mm]
18.01.2020 12:00:00 5,2 1,7 - - 16 9 - - NW 1027,5 45 0,0
18.01.2020 11:00:00 4,0 1,1 - - 13 7 - - W 1027,1 40 0,0
18.01.2020 10:00:00 2,7 0,5 - - 15 8 - - W 1026,5 23 0,2
18.01.2020 09:00:00 1,7 0,1 6,9 8,2 11 6 - - WSW 1026,0 30 0,0
18.01.2020 08:00:00 1,3 -0,2 - - 9 5 - - W 1025,3 35 0,0
18.01.2020 07:00:00 1,3 0,2 - - 9 5 - - SW 1024,4 50 0,0
18.01.2020 06:00:00 1,1 0,3 - - 9 5 - - WSW 1023,1 45 0,0
18.01.2020 05:00:00 1,1 0,2 - - 13 7 - - WSW 1022,4 45 0,0
18.01.2020 04:00:00 1,7 0,5 - - 11 6 - - WSW 1022,1 50 0,0
18.01.2020 03:00:00 2,1 0,8 - - 15 8 - - W 1021,6 50 0,0
18.01.2020 02:00:00 2,0 1,0 - - 13 7 - - WSW 1020,9 45 0,0
18.01.2020 01:00:00 2,0 0,9 - - 13 7 - - WSW 1020,3 50 0,0
18.01.2020 00:00:00 1,8 0,9 - - 15 8 - - WSW 1019,3 50 0,0
17.01.2020 23:00:00 2,2 1,2 - - 11 6 - - WSW 1018,4 50 0,0
17.01.2020 22:00:00 2,7 1,5 - - 15 8 - - WSW 1017,5 50 0,0
17.01.2020 21:00:00 3,0 1,7 - - 13 7 - - WSW 1017,0 30 0,0
17.01.2020 20:00:00 3,3 1,7 - - 15 8 - - SW 1016,6 50 0,0
17.01.2020 19:00:00 3,8 2,1 - - 15 8 - - SW 1016,0 50 0,0
17.01.2020 18:00:00 4,4 2,4 - - 15 8 - - SW 1015,5 50 0,0
17.01.2020 17:00:00 4,9 2,4 - - 15 8 - - WSW 1014,6 50 0,0
17.01.2020 16:00:00 5,3 2,4 - - 13 7 - - WSW 1013,7 50 0,0
17.01.2020 15:00:00 5,2 1,4 - - 26 14 50 27 W 1012,9 40 0,0
17.01.2020 14:00:00 4,8 2,4 - - 39 21 55 30 W 1011,7 12 0,0
17.01.2020 13:00:00 4,7 3,2 - - 39 21 57 31 WNW 1010,0 17 0,4
17.01.2020 12:00:00 7,7 4,6 - - 18 10 - - WSW 1008,3 9 0,0
17.01.2020 11:00:00 8,0 5,2 - - 22 12 - - SW 1008,0 50 0,0
17.01.2020 10:00:00 8,0 6,3 - - 18 10 - - SSW 1007,6 35 0,0
17.01.2020 09:00:00 6,8 5,7 7,4 8,2 22 12 - - S 1007,3 35 0,0
17.01.2020 08:00:00 7,4 5,7 - - 22 12 - - SSW 1007,0 50 0,0
17.01.2020 07:00:00 8,1 6,7 - - 24 13 - - S 1006,7 50 0,2
17.01.2020 06:00:00 8,3 7,5 - - 13 7 - - S 1007,0 18 0,0
17.01.2020 05:00:00 8,2 7,7 - - 15 8 - - S 1007,1 13 0,0
17.01.2020 04:00:00 8,3 7,6 - - 11 6 - - S 1007,3 11 0,0
17.01.2020 03:00:00 8,4 7,4 - - 15 8 - - S 1007,8 14 0,0
17.01.2020 02:00:00 9,0 7,7 - - 15 8 - - SSW 1008,2 13 0,0
17.01.2020 01:00:00 9,6 8,1 - - 16 9 - - SSW 1008,3 15 0,0
17.01.2020 00:00:00 10,0 8,6 - - 18 10 - - SSW 1008,4 17 0,0
16.01.2020 23:00:00 10,2 8,9 - - 21 11 - - SSW 1008,2 27 0,0
16.01.2020 22:00:00 10,3 9,2 - - 26 14 - - SSW 1007,7 50 0,8
16.01.2020 21:00:00 10,3 9,7 - - 22 12 - - SSW 1007,8 11 3,4
16.01.2020 20:00:00 10,6 9,4 - - 31 17 55 30 S 1007,5 18 0,4
16.01.2020 19:00:00 11,4 7,9 - - 34 18 50 27 S 1007,4 50 0,0
16.01.2020 18:00:00 10,9 7,7 - - 31 17 54 29 S 1007,4 50 0,0
16.01.2020 17:00:00 10,5 7,3 - - 34 18 52 28 S 1007,6 50 0,0
16.01.2020 16:00:00 9,7 7,0 - - 34 18 52 28 S 1008,2 35 0,2
16.01.2020 15:00:00 9,9 7,0 - - 35 19 54 29 S 1009,5 13 0,0
16.01.2020 14:00:00 9,4 7,2 - - 35 19 50 27 SSE 1009,9 45 0,0
16.01.2020 13:00:00 9,6 6,7 - - 34 18 50 27 S 1011,7 35 0,0
16.01.2020 12:00:00 8,7 6,3 - - 29 16 50 27 SSE 1012,6 35 0,0
16.01.2020 11:00:00 8,7 6,3 - - 29 16 - - SSE 1014,2 30 0,0
16.01.2020 10:00:00 6,9 5,6 - - 21 11 - - SSE 1015,7 27 0,0
16.01.2020 09:00:00 5,7 4,7 7,2 8,0 22 12 - - SSE 1016,2 26 0,0
16.01.2020 08:00:00 5,5 4,4 - - 21 11 - - SSE 1016,7 22 0,0
16.01.2020 07:00:00 5,8 4,5 - - 21 11 - - S 1017,0 20 0,0
16.01.2020 06:00:00 6,0 4,9 - - 18 10 - - S 1017,2 20 0,0
16.01.2020 05:00:00 5,5 4,7 - - 15 8 - - S 1017,7 14 0,0
16.01.2020 04:00:00 5,4 4,3 - - 16 9 - - SSE 1018,3 19 0,0
16.01.2020 03:00:00 5,6 4,4 - - 21 11 - - S 1018,1 17 0,0
16.01.2020 02:00:00 4,7 3,7 - - 18 10 - - SSW 1017,8 25 0,0
16.01.2020 01:00:00 4,3 2,7 - - 13 7 - - S 1017,5 29 0,0
16.01.2020 00:00:00 5,3 3,3 - - 16 9 - - SSW 1017,3 24 0,0
15.01.2020 23:00:00 6,0 3,4 - - 16 9 - - SSW 1016,4 40 0,0
15.01.2020 22:00:00 6,0 2,8 - - 18 10 - - SSW 1016,0 29 0,0
15.01.2020 21:00:00 5,9 2,6 - - 21 11 - - SSW 1015,0 30 0,0
15.01.2020 20:00:00 5,9 2,9 - - 18 10 - - SSW 1014,2 50 0,0
15.01.2020 19:00:00 6,0 3,2 - - 16 9 - - SSW 1013,3 50 0,0
15.01.2020 18:00:00 5,9 3,3 - - 16 9 - - SSW 1012,3 35 0,0
15.01.2020 17:00:00 7,2 3,1 - - 21 11 - - SW 1010,9 50 0,0
15.01.2020 16:00:00 7,3 3,8 - - 16 9 - - SW 1009,6 11 0,0
15.01.2020 15:00:00 8,4 4,2 - - 21 11 - - WSW 1008,0 50 0,0
15.01.2020 14:00:00 8,0 4,6 - - 21 11 48 26 SW 1006,5 50 0,0
15.01.2020 13:00:00 7,8 5,2 - - 18 10 - - SW 1005,9 45 0,0
15.01.2020 12:00:00 7,5 5,3 - - 18 10 - - SW 1005,1 30 0,0
15.01.2020 11:00:00 7,1 5,3 - - 16 9 - - SSW 1004,1 45 0,2
15.01.2020 10:00:00 6,9 5,4 - - 15 8 - - SSW 1003,0 11 0,0
15.01.2020 09:00:00 6,6 5,3 7,7 8,0 15 8 - - SSW 1001,8 50 0,0
15.01.2020 08:00:00 6,6 5,2 - - 15 8 - - SSW 1000,9 50 0,0
15.01.2020 07:00:00 6,9 5,7 - - 15 8 - - SSW 1000,3 50 0,0
15.01.2020 06:00:00 6,7 5,5 - - 11 6 - - SW 999,7 50 0,0
15.01.2020 05:00:00 6,7 6,3 - - 8 4 - - SSW 998,7 35 0,4
15.01.2020 04:00:00 6,8 5,7 - - 15 8 - - W 998,3 25 0,2
15.01.2020 03:00:00 7,4 6,5 - - 21 11 - - W 997,2 10 1,0
15.01.2020 02:00:00 8,1 7,8 - - 15 8 - - WSW 996,0 4,6 1,6
15.01.2020 01:00:00 8,5 8,1 - - 18 10 - - WSW 994,8 6 1,8
15.01.2020 00:00:00 9,3 9,1 - - 15 8 - - WSW 994,8 4,2 4,0
14.01.2020 23:00:00 11,2 10,4 - - 28 15 57 31 SSW 993,9 18 0,0
14.01.2020 22:00:00 11,3 10,3 - - 28 15 54 29 SSW 993,0 30 0,2
14.01.2020 21:00:00 11,4 10,6 - - 28 15 52 28 SW 992,1 50 1,4
14.01.2020 20:00:00 11,1 10,2 - - 34 18 68 37 SW 991,6 3,7 4,8
14.01.2020 19:00:00 12,7 11,2 - - 44 24 80 43 SSW 990,3 3,5 0,4
14.01.2020 18:00:00 13,5 10,9 - - 44 24 78 42 SSW 989,4 50 0,0
14.01.2020 17:00:00 13,7 11,2 - - 50 27 78 42 SSW 988,7 40 0,0
14.01.2020 16:00:00 13,6 11,2 - - 48 26 76 41 SSW 988,4 45 0,0
14.01.2020 15:00:00 13,5 10,8 - - 46 25 76 41 SSW 988,2 50 0,0
14.01.2020 14:00:00 11,5 9,5 - - 48 26 72 39 S 988,9 50 0,0
14.01.2020 13:00:00 9,4 7,5 - - 31 17 52 28 S 990,9 35 0,2
14.01.2020 12:00:00 8,6 6,8 - - 29 16 - - S 993,0 10 0,0
14.01.2020 11:00:00 8,4 6,2 - - 26 14 - - S 995,1 15 0,0
14.01.2020 10:00:00 7,3 5,3 - - 26 14 - - S 996,3 17 0,0
14.01.2020 09:00:00 6,3 4,2 7,2 8,0 22 12 - - S 996,6 16 0,0
14.01.2020 08:00:00 5,4 3,2 - - 21 11 - - S 996,5 12 0,0
14.01.2020 07:00:00 5,8 3,3 - - 22 12 - - SSW 996,7 19 0,0
14.01.2020 06:00:00 6,2 3,8 - - 21 11 - - SSW 996,5 14 0,0
14.01.2020 05:00:00 5,8 3,9 - - 16 9 - - SSW 996,4 14 0,0
14.01.2020 04:00:00 6,3 4,1 - - 15 8 - - SSW 996,0 13 0,0
14.01.2020 03:00:00 6,8 5,0 - - 18 10 - - SSW 995,5 17 0,0
14.01.2020 02:00:00 6,6 4,7 - - 21 11 - - SSW 995,0 21 0,0
14.01.2020 01:00:00 6,6 4,8 - - 21 11 - - SSW 995,1 25 0,0
14.01.2020 00:00:00 6,4 4,4 - - 22 12 - - SSW 994,9 28 0,0
13.01.2020 23:00:00 6,9 4,5 - - 22 12 - - SW 994,5 45 0,0
13.01.2020 22:00:00 6,5 5,2 - - 21 11 - - SW 994,3 40 0,6
13.01.2020 21:00:00 6,5 5,9 - - 13 7 54 29 SW 994,1 7 1,0
13.01.2020 20:00:00 9,4 8,0 - - 42 23 74 40 SSW 992,9 11 1,0
13.01.2020 19:00:00 9,6 7,7 - - 46 25 72 39 S 993,0 50 0,2
13.01.2020 18:00:00 8,9 7,2 - - 39 21 65 35 S 995,0 24 0,4
13.01.2020 17:00:00 8,3 6,6 - - 37 20 57 31 S 996,7 22 0,2
13.01.2020 16:00:00 8,2 5,5 - - 34 18 57 31 S 998,3 20 0,0
13.01.2020 15:00:00 8,5 5,0 - - 39 21 59 32 S 1000,4 45 0,0
13.01.2020 14:00:00 8,5 5,1 - - 34 18 52 28 S 1002,6 50 0,0
13.01.2020 13:00:00 8,1 5,9 - - 29 16 54 29 S 1004,7 40 0,0
13.01.2020 12:00:00 8,2 5,4 - - 26 14 - - S 1007,1 40 0,0
13.01.2020 11:00:00 8,1 6,3 - - 26 14 - - S 1008,8 45 0,0
13.01.2020 10:00:00 6,5 5,7 - - 22 12 - - S 1010,3 23 0,0
13.01.2020 09:00:00 5,0 4,6 7,2 8,0 15 8 - - SSE 1011,6 21 0,0
13.01.2020 08:00:00 4,2 3,9 - - 15 8 - - S 1012,7 21 0,0
13.01.2020 07:00:00 3,6 3,3 - - 13 7 - - S 1013,4 24 0,0
13.01.2020 06:00:00 4,9 4,1 - - 15 8 - - SSW 1014,1 35 0,0
13.01.2020 05:00:00 5,8 4,5 - - 18 10 - - SSW 1014,9 27 0,0
13.01.2020 04:00:00 5,5 4,4 - - 16 9 - - SSW 1015,6 24 0,0
13.01.2020 03:00:00 5,1 3,7 - - 18 10 - - SSW 1016,1 30 0,0
13.01.2020 02:00:00 4,6 3,3 - - 16 9 - - SSW 1017,1 27 0,0
13.01.2020 01:00:00 5,0 3,5 - - 18 10 - - SSW 1017,9 24 0,0
13.01.2020 00:00:00 5,0 3,7 - - 15 8 - - SSW 1018,7 30 0,0
12.01.2020 23:00:00 5,0 3,9 - - 18 10 - - SSW 1019,0 50 0,0
12.01.2020 22:00:00 4,9 4,0 - - 15 8 - - SSW 1019,1 45 0,0
12.01.2020 21:00:00 5,1 4,0 - - 13 7 - - SW 1019,2 45 0,0
12.01.2020 20:00:00 4,4 3,4 - - 11 6 - - SSW 1019,4 50 0,0
12.01.2020 19:00:00 5,2 3,5 - - 11 6 - - SSW 1019,3 50 0,0
12.01.2020 18:00:00 6,2 2,9 - - 9 5 - - SW 1019,1 50 0,0
12.01.2020 17:00:00 6,8 3,2 - - 8 4 - - WSW 1019,0 50 0,0
12.01.2020 16:00:00 7,8 3,9 - - 15 8 - - W 1018,3 50 0,0
12.01.2020 15:00:00 8,8 4,3 - - 24 13 - - W 1017,7 45 0,0
12.01.2020 14:00:00 8,9 5,0 - - 28 15 48 26 W 1016,9 50 0,0
12.01.2020 13:00:00 9,3 5,4 - - 28 15 55 30 W 1016,2 50 0,0
12.01.2020 12:00:00 9,9 6,3 - - 29 16 48 26 W 1015,4 50 0,0

tt = temperature
td = dewpoint
tt -20cm = temperature -20cm
tt -100cm = temperature -100cm
ff = wind speed
fx = gusts
dd = wind direction
ppp = reduced air pressure
vv = visibility
rr = precipitation

Next stations